Location: Isola Pescaroli
(45.0500°N, 10.1667°E)
Time: 19:26:04
(UTC+00:00)

APEX - Pass Details

Date: 03 March 2021
Orbit: 332 x 1080 km, 69.9° (Epoch: 18 April)

Event Time Altitude Azimuth Distance (km) Brightness Sun altitude
Rises 17:39:03 0° 330° (NNW) 2,215 6.8 -6.0°
Reaches altitude 10° 17:41:07 10° 328° (NNW) 1,314 5.7 -6.4°
Maximum altitude 17:43:53 68° 245° (WSW) 365 2.7 -6.9°
Drops below altitude 10° 17:46:34 10° 161° (SSE) 1,267 5.0 -7.3°
Sets 17:48:31 0° 159° (SSE) 2,122 6.1 -7.7°
